TimeEDT,TemperatureF,Dew PointF,Humidity,Sea Level PressureIn,VisibilityMPH,Wind Direction,Wind SpeedMPH,Gust SpeedMPH,PrecipitationIn,Events,Conditions,WindDirDegrees,DateUTC
12:53 AM,37.9,28.9,70,29.83,10.0,NNW,6.9,-,N/A,,Overcast,330,2011-10-28 04:53:00
1:53 AM,37.0,28.0,70,29.83,10.0,NW,3.5,-,N/A,,Overcast,320,2011-10-28 05:53:00
2:53 AM,36.0,28.0,73,29.84,10.0,WNW,4.6,-,N/A,,Mostly Cloudy,290,2011-10-28 06:53:00
3:53 AM,34.0,26.1,73,29.86,10.0,WNW,9.2,-,N/A,,Scattered Clouds,300,2011-10-28 07:53:00
4:53 AM,34.0,24.1,67,29.88,10.0,WNW,9.2,-,N/A,,Scattered Clouds,300,2011-10-28 08:53:00
5:53 AM,32.0,24.1,73,29.91,10.0,West,5.8,-,N/A,,Partly Cloudy,280,2011-10-28 09:53:00
6:53 AM,32.0,23.0,69,29.94,10.0,West,6.9,-,N/A,,Scattered Clouds,270,2011-10-28 10:53:00
7:53 AM,33.1,23.0,66,29.96,10.0,West,8.1,-,N/A,,Partly Cloudy,280,2011-10-28 11:53:00
8:53 AM,37.0,25.0,62,29.98,10.0,WNW,6.9,-,N/A,,Partly Cloudy,290,2011-10-28 12:53:00
9:53 AM,39.0,23.0,53,29.99,10.0,WNW,11.5,20.7,N/A,,Partly Cloudy,300,2011-10-28 13:53:00
10:53 AM,41.0,23.0,49,30.00,10.0,WNW,12.7,21.9,N/A,,Mostly Cloudy,300,2011-10-28 14:53:00
11:53 AM,43.0,23.0,45,30.01,10.0,WNW,12.7,20.7,N/A,,Mostly Cloudy,300,2011-10-28 15:53:00
12:53 PM,44.1,21.9,42,30.01,10.0,NNW,18.4,24.2,N/A,,Mostly Cloudy,330,2011-10-28 16:53:00
1:53 PM,45.0,18.0,34,30.00,10.0,NW,19.6,26.5,N/A,,Scattered Clouds,310,2011-10-28 17:53:00
2:53 PM,44.1,19.0,37,30.02,10.0,NW,21.9,27.6,N/A,,Mostly Cloudy,320,2011-10-28 18:53:00
3:53 PM,45.0,21.0,39,30.04,10.0,NW,12.7,-,N/A,,Scattered Clouds,320,2011-10-28 19:53:00
4:53 PM,43.0,19.9,40,30.07,10.0,NW,10.4,20.7,N/A,,Partly Cloudy,320,2011-10-28 20:53:00
5:53 PM,41.0,19.0,41,30.10,10.0,NW,6.9,-,N/A,,Partly Cloudy,310,2011-10-28 21:53:00
6:53 PM,39.0,19.9,46,30.13,10.0,NW,5.8,-,N/A,,Partly Cloudy,310,2011-10-28 22:53:00
7:53 PM,37.9,19.9,48,30.14,10.0,WNW,6.9,-,N/A,,Clear,300,2011-10-28 23:53:00
8:53 PM,37.0,19.9,50,30.16,10.0,WNW,5.8,-,N/A,,Partly Cloudy,300,2011-10-29 00:53:00
9:53 PM,35.1,21.9,59,30.19,10.0,WSW,3.5,-,N/A,,Partly Cloudy,240,2011-10-29 01:53:00
10:53 PM,34.0,23.0,64,30.21,10.0,Calm,Calm,-,N/A,,Partly Cloudy,0,2011-10-29 02:53:00
11:53 PM,32.0,23.0,69,30.22,10.0,Calm,Calm,-,N/A,,Partly Cloudy,0,2011-10-29 03:53:00